Simultaneous Nadir Overpasses (SNOs) Predictions

Prediction of SNOs between TERRA and METOP-C Satellite Orbit:

Table of predicted SNOs for the next 14.0 days since TLE Epoch: 12/14/2019
Index Date (TERRA) Time (TERRA) Lat,Lon (TERRA) SZA (TERRA ) Date (METOP-C) Time (METOP-C) Lat,Lon (METOP-C) SZA (METOP-C ) Distance(km) Time Diff (sec)
1 12/14/2019 14:36:20 -81.28,-172.18 72.77 12/14/2019 14:35:47 -81.28,-172.12 72.78 1.25 33
2 12/14/2019 15:25:47 81.27, -4.74 107.21 12/14/2019 15:26:28 81.28, -4.62 107.25 2.28 41
3 12/17/2019 10:10:36 -81.26,-106.10 72.73 12/17/2019 10:09:36 -81.27,-105.92 72.73 3.23 60
4 12/17/2019 11:00:02 81.27, 61.69 107.30 12/17/2019 11:00:17 81.27, 61.53 107.29 2.81 15
5 12/20/2019 06:34:18 81.28, 128.32 107.37 12/20/2019 06:34:05 81.28, 128.45 107.37 2.30 13
6 12/20/2019 07:23:45 -81.28, -64.14 72.65 12/20/2019 07:24:44 -81.28, -63.99 72.61 2.60 59
7 12/23/2019 02:08:35 81.28,-165.25 107.34 12/23/2019 02:07:55 81.27,-165.41 107.30 2.89 40
8 12/23/2019 02:58:02 -81.28, 2.32 72.68 12/23/2019 02:58:34 -81.28, 2.21 72.67 1.82 32
9 12/25/2019 21:42:53 81.27, -99.01 107.22 12/25/2019 21:41:44 81.27, -98.89 107.21 2.05 69




NCC Satellite Simultaneous Nadir Overpasses (SNOs) Prediction Service
